Location: Gaast
(52.9002°N, 5.8891°E)
Time: 02:19:41
(UTC+00:00)

SJ 16-02 - Pass Details

Date: 18 November 2025
Orbit: 585 x 594 km, 75.0° (Epoch: 13 December)

Event Time Altitude Azimuth Distance (km) Brightness Sun altitude
Rises 16:41:06 0° 154° (SSE) 2,826 4.7 -9.5°
Reaches altitude 10° 16:44:05 10° 131° (SE) 1,930 3.6 -9.9°
Maximum altitude 16:46:35 15° 95° (E) 1,612 2.9 -10.3°
Enters shadow 16:47:39 14° 78° (ENE) 1,676 2.9 -10.4°
